Content
SEND FEEDBACK

Daily
Averages
Monthly
Summary
Mexico

PLAYA DEL CARMEN, QUINTANA ROO


Home > North America > Mexico > Quintana Roo
Elevation: 30 feet     Latitude: 20 38N     Longitude: 087 04W

WEATHER
 
SELECT A DAY
Number of Records: 196,008;   Date Range: 2/21/06 - 7/7/14
 
SHARE

PRINT THIS DATA

[ ← Previous Day ]
WEATHER ALMANAC - JANUARY 12, 2014
[ Next Day → ]
[ °C ]   °F
Weather ElementAverageHighLow
Temperature61.6 °F69.8 °F (1:55 pm)51.8 °F (7:35 pm)
Dewpoint30.4 °F57.2 °F (7:15 am) (7:00 pm)
Humidity51.5 %100 % (7:15 am)17 % (1:35 pm)
Barometer30.16 in30.23 in (9:55 am)30.05 in (1:15 am)
Wind Speed5.3 mph10.4 mph (2:15 am)
Wind Gust18.4 mph (5:15 am)
Weather ElementAverage
Visibility9.8 mi
Wind DirectionSSE (163.5 °)

Weather ElementTotal
Precipitation0.40 in
Heating Degree Days4.2 (Base 65)
Growing Degree Days10.8 (Base 50)
Averaged from 71 records on January 12, 2014
WEATHER CONDITIONS BREAKOUT
WIND DIRECTION BREAKOUT
WEATHER BY HOUR - JANUARY 12, 2014
[ °C ]   °F
Local TimeTemperatureDewpointHumidityBarometerVisibilityWind DirectionWind SpeedGust SpeedPrecipitationEventsConditions
12:35 AM66.2 °F0.0 °F30.06 in7.0 miSW (230°)6.9 mph0.01 inClear
12:55 AM66.2 °F0.0 °F30.06 in7.0 miWSW (250°)5.8 mph0.02 inClear
1:15 AM64.4 °F0.0 °F30.05 in10.0 miWest (260°)6.9 mph0.01 inClear
1:35 AM64.4 °F0.0 °F30.05 in10.0 miWest (270°)5.8 mph0.01 inClear
1:55 AM64.4 °F0.0 °F30.06 in7.0 miWest (270°)8.1 mph0.02 inClear
2:15 AM64.4 °F0.0 °F30.06 in10.0 miWest (280°)10.4 mph0.01 inClear
2:35 AM64.4 °F0.0 °F30.07 in10.0 miWNW (290°)9.2 mph0.01 inScattered Clouds
2:55 AM64.4 °F0.0 °F30.07 in10.0 miWNW (290°)8.1 mph0.02 inClear
3:15 AM64.4 °F0.0 °F30.07 in10.0 miWNW (290°)6.9 mphClear
3:35 AM64.4 °F0.0 °F30.08 in10.0 miWest (280°)3.5 mph0.01 inScattered Clouds
3:55 AM64.4 °F0.0 °F30.08 in7.0 miWNW (290°)6.9 mph0.01 inMostly Cloudy
4:15 AM64.4 °F0.0 °F30.09 in7.0 miNW (320°)9.2 mph0.01 inScattered Clouds
4:35 AM62.6 °F0.0 °F30.09 in10.0 miNNW (330°)6.9 mph0.01 inClear
4:55 AM62.6 °F0.0 °F30.09 in10.0 miNNW (330°)10.4 mph0.02 inClear
5:15 AM60.8 °F0.0 °F30.10 in10.0 miNNW (330°)10.4 mph18.4 mphClear
5:35 AM60.8 °F51.8 °F72 %30.10 in10.0 miNNW (330°)8.1 mph0.01 inClear
5:55 AM59.0 °F53.6 °F82 %30.11 in10.0 miNNW (330°)5.8 mph0.01 inClear
6:15 AM59.0 °F53.6 °F82 %30.12 in10.0 miNNW (330°)3.5 mph0.01 inClear
6:35 AM57.2 °F53.6 °F88 %30.13 in10.0 miNNW (330°)3.5 mph0.01 inClear
6:55 AM57.2 °F55.4 °F94 %30.13 in10.0 miNNW (330°)4.6 mph0.01 inClear
7:15 AM57.2 °F57.2 °F100 %30.14 in10.0 miNNW (340°)4.6 mphClear
7:35 AM55.4 °F0.0 °F30.14 in10.0 miCalm0.01 inClear
7:55 AM55.4 °F55.4 °F100 %30.15 in10.0 miNorth (350°)4.6 mph0.01 inClear
8:15 AM57.2 °F51.8 °F82 %30.17 in10.0 miNorth (350°)4.6 mphClear
8:35 AM57.2 °F50.0 °F77 %30.18 in10.0 miNorth (360°)5.8 mph0.01 inClear
8:55 AM59.0 °F50.0 °F72 %30.19 in10.0 miNorth (10°)5.8 mph0.01 inClear
9:15 AM59.0 °F46.4 °F63 %30.20 in10.0 miNorth (360°)6.9 mphClear
9:35 AM60.8 °F44.6 °F55 %30.22 in10.0 miNorth (360°)8.1 mph0.01 inClear
9:55 AM60.8 °F44.6 °F55 %30.23 in10.0 miNNE (30°)8.1 mph0.01 inClear
10:15 AM62.6 °F42.8 °F48 %30.23 in10.0 miNorth (360°)6.9 mphClear
10:35 AM62.6 °F41.0 °F45 %30.23 in10.0 miNorth (10°)8.1 mph0.01 inClear
10:55 AM64.4 °F41.0 °F42 %30.23 in10.0 miNorth (10°)8.1 mph0.01 inClear
11:15 AM64.4 °F41.0 °F42 %30.23 in10.0 miNorth (10°)5.8 mphClear
11:35 AM64.4 °F41.0 °F42 %30.22 in10.0 miNorth (360°)4.6 mph0.01 inClear
11:55 AM64.4 °F33.8 °F32 %30.22 in10.0 miNNE (20°)5.8 mph0.01 inClear
12:15 PM66.2 °F35.6 °F32 %30.20 in10.0 miNE (40°)4.6 mphClear
12:35 PM66.2 °F30.2 °F26 %30.19 in10.0 miCalmClear
12:55 PM68.0 °F32.0 °F26 %30.18 in10.0 miNorth (10°)5.8 mph0.01 inClear
1:15 PM68.0 °F30.2 °F24 %30.17 in10.0 miNE (40°)9.2 mphClear
1:35 PM68.0 °F21.2 °F17 %30.17 in10.0 miNorth (360°)5.8 mphClear
1:55 PM69.8 °F24.8 °F18 %30.16 in10.0 miNE (50°)9.2 mph0.01 inClear
2:15 PM69.8 °F23.0 °F17 %30.16 in10.0 miNorth (10°)4.6 mphClear
2:35 PM69.8 °F23.0 °F17 %30.15 in10.0 miNorth (360°)6.9 mphClear
2:55 PM69.8 °F24.8 °F18 %30.15 in10.0 miNorth (360°)4.6 mphClear
3:15 PM69.8 °F28.4 °F21 %30.15 in10.0 miEast (80°)6.9 mph0.01 inClear
3:35 PM69.8 °F28.4 °F21 %30.15 in10.0 miEast (80°)6.9 mph0.01 inClear
3:55 PM69.8 °F24.8 °F18 %30.16 in10.0 miENE (70°)3.5 mph0.01 inClear
4:15 PM69.8 °F23.0 °F17 %30.16 in10.0 miCalmClear
4:35 PM69.8 °F26.6 °F20 %30.17 in10.0 miENE (70°)5.8 mphClear
4:55 PM69.8 °F24.8 °F18 %30.17 in10.0 miESE (110°)5.8 mphClear
5:15 PM68.0 °F24.8 °F20 %30.18 in10.0 miENE (70°)5.8 mph0.01 inClear
5:35 PM66.2 °F28.4 °F24 %30.18 in10.0 miCalm0.01 inClear
5:55 PM64.4 °F30.2 °F28 %30.18 in10.0 miCalm0.01 inClear
6:15 PM59.0 °F37.4 °F45 %30.19 in10.0 miCalmClear
6:35 PM57.2 °F39.2 °F51 %30.20 in10.0 miCalmClear
6:55 PM55.4 °F42.8 °F63 %30.20 in10.0 miCalmClear
7:15 PM55.4 °F41.0 °F58 %30.20 in10.0 miCalmClear
7:35 PM51.8 °F42.8 °F71 %30.20 in10.0 miENE (70°)3.5 mphClear
7:55 PM53.6 °F44.6 °F72 %30.21 in10.0 miNE (50°)3.5 mphClear
8:15 PM53.6 °F44.6 °F72 %30.21 in10.0 miNE (40°)3.5 mphClear
8:35 PM53.6 °F46.4 °F77 %30.21 in10.0 miENE (60°)3.5 mphClear
8:55 PM53.6 °F42.8 °F67 %30.22 in10.0 miENE (70°)5.8 mphClear
9:15 PM55.4 °F42.8 °F63 %30.22 in10.0 miEast (80°)5.8 mphClear
9:35 PM55.4 °F42.8 °F63 %30.23 in10.0 miENE (70°)4.6 mphClear
9:55 PM55.4 °F44.6 °F67 %30.23 in10.0 miEast (80°)5.8 mphClear
10:15 PM55.4 °F42.8 °F63 %30.23 in10.0 miEast (80°)4.6 mphClear
10:35 PM53.6 °F42.8 °F67 %30.23 in10.0 miEast (80°)3.5 mphClear
10:55 PM53.6 °F42.8 °F67 %30.22 in10.0 miEast (80°)3.5 mphClear
11:15 PM51.8 °F42.8 °F71 %30.22 in10.0 miEast (80°)3.5 mphClear
11:35 PM51.8 °F42.8 °F71 %30.21 in10.0 miEast (90°)4.6 mphClear
11:55 PM51.8 °F42.8 °F71 %30.20 in10.0 miEast (80°)3.5 mphClear
Hourly data recorded from KPCM, located miles away from Playa del Carmen, Quintana Roo







STORIES FROM OUR PARTNERS